Corpus Christi, TX

2:49 AM CST on February 24, 2017 (GMT -0600)
Corpus Christi International

Weather History for KCRP - August, 2013

Change the Weather History Date:

Thursday, August 22, 2013

  Actual Average Record
Temperature  
Mean Temperature 87 °F 85 °F  
Max Temperature 96 °F 94 °F 101 °F (1997)
Min Temperature 77 °F 75 °F 67 °F (1986)
Degree Days  
Heating Degree Days 0 0  
Month to date heating degree days 0 0  
Since 1 June heating degree days 0 0  
Since 1 July heating degree days 0 0  
Cooling Degree Days 22 20  
Month to date cooling degree days 492 440  
Year to date cooling degree days 2825 2390  
Since 1 June cooling degree days 1807 1549  
Growing Degree Days 36 (Base 50)    
Moisture  
Dew Point 74 °F    
Average Humidity 66    
Maximum Humidity 88    
Minimum Humidity 43    
Precipitation  
Precipitation 0.01 in 0.11 in 4.56 in (1999)
Month to date precipitation 0.60 1.71  
Year to date precipitation 10.40 18.13  
Snow  
Snow 0.00 in - - ()
Month to date snowfall 0.0  
Since 1 June snowfall 0.0  
Since 1 July snowfall 0.0  
Snow Depth 0.00 in    
Sea Level Pressure  
Sea Level Pressure 29.99 in    
Wind  
Wind Speed 6 mph (East)    
Max Wind Speed 17 mph    
Max Gust Speed 24 mph    
Visibility 10 miles    
Events Rain    
T = Trace of Precipitation, MM = Missing Value Source: NWS Daily Summary

Daily Weather History Graph

Daily Weather History Graph

Search for Another Location

Airport or City:

Trip Planner

Search our weather history database for the weather conditions in past years. The results will help you decide how hot, cold, wet, or windy it might be!

Date:

Astronomy

Aug. 22, 2013 Rise Set
Actual Time 7:04 AM CDT 8:01 PM CDT
Civil Twilight 6:39 AM CDT 8:25 PM CDT
Nautical Twilight 6:11 AM CDT 8:53 PM CDT
Astronomical Twilight 5:41 AM CDT 9:22 PM CDT
Moon 9:03 PM CDT (8/22) 8:39 AM CDT (8/22)
Length of Visible Light 13h 45m
Length of Day
12h 56m
Waning Gibbous, 96% of the Moon is Illuminated
Aug 22
Waning Gibbous
Aug 28
Last Quarter
Sep 5
New
Sep 12
First Quarter
Sep 19
Full

Hourly Weather History & Observations

Time (CDT) Temp. Heat Index Dew Point Humidity Pressure Visibility Wind Dir Wind Speed Gust Speed Precip Events Conditions
12:51 AM 81.0 °F 86.7 °F 75.0 °F 82% 30.01 in 10.0 mi SE 4.6 mph - N/A   Partly Cloudy
1:51 AM 80.1 °F 85.1 °F 75.0 °F 85% 30.01 in 10.0 mi Calm Calm - N/A   Partly Cloudy
2:51 AM 78.1 °F - 73.9 °F 87% 30.00 in 10.0 mi Calm Calm - N/A   Partly Cloudy
3:51 AM 77.0 °F - 73.9 °F 90% 29.99 in 10.0 mi Calm Calm - N/A   Partly Cloudy
4:51 AM 77.0 °F - 73.0 °F 88% 29.98 in 10.0 mi Calm Calm - N/A   Partly Cloudy
5:51 AM 77.0 °F - 73.9 °F 90% 30.00 in 10.0 mi Calm Calm - N/A   Partly Cloudy
6:51 AM 78.1 °F - 73.9 °F 87% 30.01 in 8.0 mi North 4.6 mph - N/A   Partly Cloudy
7:51 AM 80.1 °F 85.4 °F 75.9 °F 87% 30.02 in 10.0 mi North 6.9 mph - N/A   Partly Cloudy
8:51 AM 82.0 °F 89.4 °F 75.9 °F 82% 30.04 in 10.0 mi NNE 4.6 mph - N/A   Scattered Clouds
9:51 AM 84.0 °F 94.8 °F 78.1 °F 82% 30.04 in 8.0 mi NNE 5.8 mph - 0.01 in Rain Light Rain
10:51 AM 87.1 °F 97.3 °F 75.9 °F 69% 30.04 in 10.0 mi NE 10.4 mph - 0.00 in   Mostly Cloudy
11:51 AM 88.0 °F 95.6 °F 73.0 °F 61% 30.04 in 10.0 mi East 6.9 mph - N/A   Scattered Clouds
12:51 PM 91.0 °F 99.3 °F 73.0 °F 55% 30.01 in 10.0 mi ENE 5.8 mph - N/A   Scattered Clouds
1:51 PM 91.9 °F 100.7 °F 73.0 °F 54% 30.00 in 10.0 mi ENE 9.2 mph - N/A   Scattered Clouds
2:51 PM 95.0 °F 101.3 °F 70.0 °F 44% 29.97 in 10.0 mi ESE 6.9 mph 24.2 mph N/A   Scattered Clouds
3:51 PM 96.1 °F 104.9 °F 72.0 °F 46% 29.95 in 10.0 mi East 13.8 mph 18.4 mph N/A   Scattered Clouds
4:51 PM 93.0 °F 100.7 °F 72.0 °F 50% 29.93 in 10.0 mi East 13.8 mph - N/A   Partly Cloudy
5:51 PM 89.1 °F 96.0 °F 72.0 °F 57% 29.93 in 10.0 mi ESE 12.7 mph - N/A   Partly Cloudy
6:51 PM 88.0 °F 95.6 °F 73.0 °F 61% 29.92 in 10.0 mi East 11.5 mph - N/A   Scattered Clouds
7:51 PM 86.0 °F 93.8 °F 73.9 °F 67% 29.94 in 10.0 mi SE 9.2 mph - N/A   Partly Cloudy
8:51 PM 84.9 °F 92.1 °F 73.9 °F 69% 29.96 in 10.0 mi SE 11.5 mph - N/A   Partly Cloudy
9:51 PM 84.0 °F 91.9 °F 75.0 °F 74% 29.96 in 10.0 mi SE 8.1 mph - N/A   Partly Cloudy
10:51 PM 82.9 °F 90.2 °F 75.0 °F 77% 29.98 in 10.0 mi SSE 3.5 mph - N/A   Partly Cloudy
11:51 PM 82.0 °F 87.9 °F 73.9 °F 76% 29.98 in 10.0 mi Calm Calm - N/A   Partly Cloudy